Other Public Products
Issued by NWS Grand Forks, ND

Home | Current Version | Previous Version | Graphics & Text | Print | Product List | Glossary On
Versions: 1 2 3 4 5 6 7 8 9 10 11 12 13 14 15 16 17 18 19 20 21 22 23 24 25 26 27 28 29 30 31 32 33 34 35 36 37 38 39 40 41 42 43 44 45 46 47 48 49 50
210
FPUS83 KFGF 072110
OPUFGF
PRAIRIE TO PINES WEATHER ROUNDUP
NATIONAL WEATHER SERVICE EASTERN NORTH DAKOTA/GRAND FORKS ND
300 PM CST WED DEC 07 2016

 **SATELLITE DATA USED TO AUGMENT SKY COVER AT AUTOMATED STATIONS**
 *****  WEATHER ACROSS EASTERN NORTH DAKOTA  *****

CITY           SKY/WX    TMP DP  RH WIND       PRES   REMARKS
GRAND FORKS    LGT SNOW  20  15  81 NW24G30   30.01R VSB 1   WCI   3
GRAND FORKS AF LGT SNOW  19  14  79 NW20G29   30.04R VSB 1   WCI   4
GRAND CITY NWS NOT AVBL
BUXTON         NOT AVBL
DEVILS LAKE    SNOW      12   9  87 NW29G36   30.09R VSB 1/2 WCI  -9
FARGO          LGT SNOW  17  10  74 W26G37    30.07R WCI  -2
WAHPETON ARPT  CLOUDY    14  10  85 W26G35    30.11R WCI  -6
$$

 *****  WEATHER ACROSS CENTRAL AND WESTERN NORTH DAKOTA  *****

CITY           SKY/WX    TMP DP  RH WIND       PRES   REMARKS
JAMESTOWN      SNOW       9   5  84 NW31G45   30.14R VSB 1/4 WCI -14
BISMARCK       CLOUDY     4  -2  76 NW24G36   30.31R WCI -19
MINOT          LGT SNOW   7   1  76 W32G43    30.26R VSB 1   WCI -17
MINOT AFB      HVY SNOW   5   1  83 NW39G45   30.24R VSB 1/4 WCI -22
GARRISON         N/A      2  -2  83 NW31G46   30.27R WCI -24
WILLISTON      CLOUDY     2  -6  69 NW18      30.45R WCI -19
DICKINSON      MIX PCPN   0  -6  76 NW31G38   30.32R VSB 1   WCI -26
HETTINGER      MIX PCPN   4  -3  73 NW33G41   30.33R WCI -22
$$

 *****  OTHER OBSERVATIONS NORTHEAST NORTH DAKOTA  *****

CITY           SKY/WX    TMP DP  RH WIND       PRES   REMARKS
WALHALLA         N/A     19  19 100 NW29G37   30.03R FOG     WCI   1
LANGDON        SNOW      16  12  86 NW31G39   30.00R VSB 1/2 WCI  -5
CAVALIER       LGT SNOW  21  18  86 NW26G36   30.01R VSB 3/4 WCI   4
GRAFTON        CLOUDY    19  18  93 NW22G31   30.02R FOG     WCI   3
CANDO          LGT SNOW  14  10  85 NW22G30   30.14R WCI  -4
FORT TOTTEN      N/A     11   9  92 NW15      29.95S WCI  -5
ROLLA          HVY SNOW  10   9  92 NW31G43   30.10R VSB 1/4 WCI -12
RUGBY            N/A      7   5  92 NW30      30.18R FOG     WCI -17
 ***** THE ABOVE OBSERVATIONS ARE NON NWS ARE NOT QUALITY
        CONTROLLED AND MAY MIS-REPORT RAIN FOR SNOW...
$$

 *****  OTHER OBSERVATIONS SOUTHEAST NORTH DAKOTA *****

CITY           SKY/WX    TMP DP  RH WIND       PRES   REMARKS
COOPERSTOWN    SNOW      12   9  85 NW25G38   30.08R VSB 1/2 WCI  -8
VALLEY CITY    LGT SNOW   9   9 100 NW29G43   30.12R VSB 3/4 WCI -14
OAKES          NOT AVBL
GWINNER        CLOUDY    14  10  85 W25G32    30.14R WCI  -5
SHEYENNE NWR     N/A     13   5  70 NW21      29.95S WCI  -5
BUFFALO        NOT AVBL
WYNDMERE       NOT AVBL
 ***** THE ABOVE OBSERVATIONS ARE NON NWS ARE NOT QUALITY
       CONTROLLED AND MAY MIS-REPORT RAIN FOR SNOW...
$$

  *****  WEATHER ACROSS NORTHERN MINNESOTA  *****

CITY           SKY/WX    TMP DP  RH WIND       PRES   REMARKS
FLAG ISLAND    CLOUDY    25  19  80 N28G35    29.84R WCI   8
WARROAD        LGT SNOW  25  21  86 NW15G23   29.86R WCI  12
ROSEAU         LGT SNOW  27  21  80 N20       29.87R WCI  13
HALLOCK          N/A     23  21  93 NW20G26   29.96R WCI   8
THF RVR FALLS  LGT SNOW  20  17  88 NW21      29.93R FOG     WCI   4
HALSTAD          N/A     16  12  84 NW24        N/A  WCI  -2
FOSSTON        LGT SNOW  16  12  86 W18G24    29.94R WCI  -1
BAUDETTE       LGT SNOW  25  20  81 N15G22    29.81R WCI  13
WASKISH        LGT SNOW  25  21  86 W16G23    29.82R WCI  12
CROOKSTON      LGT SNOW  19  18  93 NW23      29.99R WCI   2
$$
  *****  WEATHER ACROSS CENTRAL AND WEST MINNESOTA  *****

CITY           SKY/WX    TMP DP  RH WIND       PRES   REMARKS
BEMIDJI        LGT SNOW  17  13  86 W18       29.88R WCI   0
PARK RAPIDS    LGT SNOW  15   7  70 W20       29.94R VSB 1   WCI  -2
WADENA         LGT SNOW  12   7  79 W17G24    29.99R WCI  -5
DETROIT LAKES  LGT SNOW  16  12  86 W16G28    30.00R VSB 1   WCI   0
MOORHEAD       MIX PCPN  14  10  85 W22G28    30.07R VSB 3/4 WCI  -4
FERGUS FALLS   SNOW      12   9  85 W24       30.12R VSB 1/2 WCI  -8
ELBOW LAKE     SNOW      13  10  89 NW18G28   30.09R VSB 1/2 WCI  -4
MORRIS MN      LGT SNOW  16   9  73 W28       30.10R WCI  -4
STAPLES        CLOUDY    12   9  85 W21G26    29.99R WCI  -6
WHEATON        CLOUDY    16  10  79 W20G31    30.15R WCI  -1
$$
  *****  WEATHER ELSEWHERE ACROSS MINNESOTA  *****

CITY           SKY/WX    TMP DP  RH WIND       PRES   REMARKS
DULUTH         LGT SNOW  18  12  77 W21G32    29.81R BLWGSNOWWCI   1
INTRNTL FALLS  SNOW      25  20  81 NW14      29.75R VSB 1/2 WCI  13
ELY            LGT SNOW  21  18  86 W13G18    29.72R WCI   9
CLOQUET        FLURRIES  18   9  68 W15G25    29.85R WCI   3
BRAINERD       CLOUDY    16   8  71 W20G28    29.96R WCI  -1
HIBBING        LGT SNOW  17  13  84 W10G21    29.80R VSB 3/4 WCI   5
ALEXANDRIA     LGT SNOW  13   8  81 W23G33    30.05R WCI  -6
SAINT CLOUD    FLURRIES  17   8  67 W18G29    30.03R WCI   1
MINNEAPOLIS    FLURRIES  20   9  62 W15G28    30.05R WCI   6
$$

  *****  WEATHER ACROSS SOUTH DAKOTA  *****

CITY           SKY/WX    TMP DP  RH WIND       PRES   REMARKS
SIOUX FALLS    MOSUNNY   19   7  59 NW25G35   30.23R WCI   1
BROOKINGS      LGT SNOW  14   7  73 NW29G35   30.16R WCI  -7
WATERTOWN      CLOUDY    12   5  73 W28G36    30.15R HAZE    WCI  -9
HURON          CLOUDY    16   5  62 NW24G35   30.29R WCI  -2
SISSETON         N/A     14   6  70 NW23G36   30.13R WCI  -5
ABERDEEN       CLOUDY    11   0  61 NW26G35   30.26R WCI -10
MITCHELL       SUNNY     18   5  57 NW26G35   30.31R WCI  -1
PIERRE         PTSUNNY   13   4  67 NW30G39   30.33S WCI  -8
MOBRIDGE       MOSUNNY   10  -1  61 NW31G45   30.27R WCI -13
RAPID CITY     SUNNY     15  -4  42 NW18      30.33R WCI  -2
$$

  *****  SOME WEATHER IN NEARBY STATES *****

CITY           SKY/WX    TMP DP  RH WIND       PRES   REMARKS
GLASGOW MT     PTSUNNY    4  -6  63 NW24      30.51R WCI -19
GREAT FALLS MT CLOUDY     2  -7  66 W5        30.48S WCI  -8
CHEYENNE WY    SUNNY      6  -4  63 N15       30.14R WCI -12
SCOTTSBLUFF NE SUNNY     14   0  53 NW18G25   30.31S WCI  -3
OMAHA NE       PTSUNNY   25   7  46 NW17G26   30.32R WCI  12
DES MOINES IA  CLOUDY    25   9  50 W21G26    30.25R WCI  11
DAVENPORT IA   CLOUDY    26  17  68 W22       30.17R WCI  12
CHICAGO IL     PTSUNNY   26  18  71 SW15      30.09R WCI  14
EAU CLAIRE WI  CLOUDY    20  13  74 W16G25    29.99R WCI   6
LA CROSSE WI   CLOUDY    23  12  62 W16       30.08R WCI  10
$$

  *****  SOME NATIONAL WEATHER *****

CITY           SKY/WX    TMP DP  RH WIND       PRES   REMARKS
LA GUARDIA NY  CLOUDY    47  39  74 NW8       29.98S
RALEIGH NC     PTCLDY    60  40  47 SW5       30.03R
ATLANTA GA     MOSUNNY   60  44  55 W10       30.03R
NEW ORLEANS LA CLOUDY    61  57  87 N7        30.07S
OKLAHOMA CITY  CLOUDY    37  29  72 NE12      30.17R
ALBUQUERQUE NM PTSUNNY   44  20  38 N12       30.04R
SALT LAKE CITY MOSUNNY   28  12  51 NW6       30.28R WCI  22
LOS ANGELES CA PTSUNNY   61  50  67 SW8       30.07F
BOISE ID       SUNNY     23  17  78 S12       30.36F WCI  12
SEATTLE WA     MOSUNNY   37  23  56 N9        30.39F
$$

*** WEATHER ACROSS MANITOBA...SASKATCHEWAN AND ONTARIO ***
                ***ONTARIO***

CITY           SKY/WX    TMP DP  RH WIND       PRES   REMARKS
GERALDTON      LGT SNOW  23  21  93 W7        29.52R WCI  15
THUNDER BAY    LGT SNOW  28  25  86 W12G20    29.62R WCI  18
SIOUX LOOKOUT  LGT SNOW  21  19  93 N6        29.70R VSB 3/4 WCI  14
TORONTO        MOCLDY    36  23  60 SW12      29.92F
BIG TROUT LK   LGT SNOW  23  21  93 N8G17     29.84R WCI  14
PICKLE LAKE    LGT SNOW  21  19  93 N10G22    29.68R DRFTSNOWWCI  10
DRYDEN         FLURRIES  21  19  93 N13G21    29.72R WCI   9
KENORA         LGT SNOW  21  19  93 N14G23    29.81R WCI   8
$$
                *** MANITOBA***

CITY           SKY/WX    TMP DP  RH WIND       PRES   REMARKS
BRANDON        FLURRIES  16  10  79 NW21G29   30.17R WCI  -2
DAUPHIN        LGT SNOW  18  14  86 NW14G25   30.23R WCI   4
ISLAND LAKE    FLURRIES  19  16  86 N16G23    30.06R WCI   5
PILOT MOUND      N/A     14  12  92 NW26G33     N/A  WCI  -6
THE PAS        CLOUDY    12   7  79 N15G25    30.36R WCI  -4
THOMPSON       FLURRIES   5  -2  72 N15G23    30.33R WCI -13
WINNIPEG       LGT SNOW  23  19  86 N13G21    30.01R BLWGSNOWWCI  11
LYNN LAKE      CLEAR     -8 -11  84 N12G17    30.45R WCI -27
CHURCHILL      SNOW      10   9  92 N28G40    30.32R VSB 1/8 WCI -11
GILLAM         FLURRIES   1  -4  78 N13G21    30.28R WCI -16
$$
                ***SASKATCHEWAN***

CITY           SKY/WX    TMP DP  RH WIND       PRES   REMARKS
ESTEVAN        SNOW       1  -2  85 NW31G38   30.36R VSB 1/2 WCI -24
KINDERSLEY     CRYSTALS  -2  -9  71 NW15      30.53R WCI -22
LLOYDMINSTER   PTSUNNY   -2  -9  71 NW13      30.56R WCI -21
PRINCE ALBERT  FLURRIES   5  -2  72 NW14      30.49R WCI -12
REGINA         CLOUDY     5  -2  72 NW22G29   30.42R WCI -16
YORKTON        CLOUDY    10   5  79 NW17G23   30.31R WCC1F1C2F2C3F3C4F4C5F5C6F6C7F7C8F8C9F9CaFaCbFbCcFcCdFdCe!



USA.gov is the U.S. government's official web portal to all federal, state and local government web resources and services.